Location: Holmes Observatory
(37.1039°N, 122.0513°W)
Time: 19:12:28
(UTC-07:00)

Daily predictions for brighter satellites

Satellite Brightness Start Highest point End
(mag) Time Altitude Azimuth Time Altitude Azimuth Time Altitude Azimuth
Cosmos 1346 Rocket 3.5 20:08:36 10° SSW 20:12:37 62° W 20:16:41 10° N
ATLAS 2AS CENTAUR R/B 4.0 20:08:58 10° NNW 20:15:51 31° NE 20:22:17 10° ESE
Cosmos 2360 Rocket 3.5 20:17:14 10° SW 20:22:39 46° WNW 20:28:03 10° N
H-2A R/B 3.0 20:18:50 10° W 20:23:05 19° SW 20:25:08 10° S
OAO 2 Rocket 3.5 20:18:02 10° W 20:23:14 68° S 20:28:16 10° ESE
Cosmos 1633 Rocket 4.0 20:21:47 10° NNE 20:25:36 29° ENE 20:29:24 10° SE
Nadezhda 3 Rocket 4.4 20:19:51 10° N 20:25:52 45° ENE 20:31:55 10° SSE
CZ-2D R/B 3.2 20:22:22 10° SSE 20:26:08 70° ENE 20:29:56 10° N
Cosmos 1455 3.0 20:28:03 10° SSE 20:31:23 29° E 20:34:45 10° NNE
Cosmos 2333 Rocket 2.4 20:27:00 10° S 20:32:23 47° ESE 20:37:48 10° NE
Cosmos 2221 3.9 20:29:34 10° SSW 20:33:37 43° W 20:37:42 10° N
ERS-2 2.2 20:30:15 10° SSE 20:33:51 60° ENE 20:37:29 10° N
Cosmos 2228 Rocket 4.3 20:30:50 10° SE 20:34:09 21° E 20:37:28 10° NE
Meteor 2-2 Rocket 4.3 20:31:03 10° S 20:36:46 62° E 20:42:37 10° NNE
COSMOS 2428 2.8 20:31:48 10° SSW 20:37:33 88° WNW 20:43:18 10° NNE
NOSS 2-1 (E) 3.6 20:34:46 10° SW 20:38:21 65° WNW 20:42:15 10° NNE
Cosmos 2333 4.4 20:34:16 10° SSW 20:39:56 80° WNW 20:45:35 10° NNE
Cosmos 1892 3.1 20:36:33 10° N 20:40:18 45° E 20:44:01 10° SSE
Cosmos 1844 Rocket 2.7 20:37:02 10° NNW 20:42:42 71° ENE 20:48:19 10° SSE
SL-8 R/B 3.8 20:39:29 10° SW 20:44:08 53° SE 20:48:48 10° ENE
Cosmos 1844 3.9 20:40:53 10° NNW 20:46:31 59° ENE 20:51:30 13° SE
Cosmos 1805 Rocket 3.9 20:45:41 10° NNW 20:49:59 66° W 20:54:16 10° S
H-2A R/B 3.9 20:48:27 11° E 20:50:00 13° ENE 20:52:14 10° NE
BREEZE-M DEB (TANK) 3.3 20:44:55 10° WNW 20:50:15 72° SW 20:52:42 19° SE
YAOGAN 6 2.5 20:46:49 10° SSE 20:50:21 67° ENE 20:53:58 10° N
Cosmos 2219 Rocket 2.1 20:44:58 10° SSW 20:50:39 83° ESE 20:56:19 10° NNE
NOSS 3-3 (A) 3.9 20:45:13 10° SSW 20:51:11 87° ESE 20:57:42 10° NNE
NOSS 3-3 (C) 3.9 20:45:20 10° SSW 20:51:17 87° ESE 20:57:47 10° NNE
Cosmos 2237 Rocket 2.6 20:46:15 10° S 20:51:23 38° ESE 20:56:32 10° NE
Cosmos 1328 Rocket 3.6 20:49:28 10° S 20:53:44 54° E 20:58:04 10° NNE
Resurs 01 Rocket 1.6 20:53:38 12° SSE 20:57:45 67° ENE 21:02:10 10° N
Cosmos 2154 Rocket 4.1 20:53:15 10° S 20:59:32 79° W 21:05:47 10° N
Cosmos 2278 Rocket 3.0 20:57:37 10° N 21:02:44 34° ENE 21:05:27 22° ESE
USA 267 4.1 20:57:55 10° ENE 21:03:07 25° ESE 21:08:18 10° S
Cosmos 1340 4.2 21:02:12 10° SSW 21:05:45 38° WNW 21:09:19 10° N
NOAA 11 4.4 21:02:20 18° SE 21:06:18 54° ENE 21:11:39 10° N
Cosmos 2251 Rocket 3.8 21:01:01 10° NNW 21:06:22 73° WSW 21:11:37 10° S
ATLAS CENTAUR R/B 1.1 21:03:22 10° SSW 21:06:59 83° WNW 21:10:46 10° NNE
Envisat 4.0 21:02:23 10° S 21:07:14 46° W 21:12:07 10° NNW
Cosmos 1470 Rocket 3.9 21:03:40 10° N 21:07:55 45° E 21:09:51 27° SE
Cosmos 2056 Rocket 4.2 21:15:53 28° SE 21:17:25 33° E 21:22:12 10° NE
Aureole 2 4.2 21:16:01 10° SSW 21:19:08 73° WNW 21:22:04 10° NNE
Cosmos 2098 Rocket 3.7 21:20:03 34° ESE 21:20:53 37° E 21:24:42 10° NNE
Cosmos 1825 2.7 21:17:44 10° N 21:21:18 38° E 21:21:24 38° E
Cosmos 2341 Rocket 4.1 21:15:08 10° S 21:21:30 80° W 21:27:52 10° N
USA 186 3.5 21:20:57 14° SW 21:22:02 20° W 21:23:47 10° NW
Cosmos 2218 Rocket 4.0 21:22:06 13° S 21:27:42 62° E 21:33:59 10° NNE
Cosmos 1939 Rocket 4.1 21:26:24 11° SSW 21:29:47 38° W 21:33:26 10° NNW
TRAILBLAZER 4.5 21:29:31 10° SSW 21:34:02 76° ESE 21:38:42 10° NE
NOSS 0 Rocket 4.1 21:28:19 10° SSW 21:34:28 74° WNW 21:40:41 10° NNE
Cosmos 1624 Rocket 4.1 21:32:55 37° SSE 21:34:32 50° ESE 21:39:32 10° NNE
Cosmos 1933 Rocket 3.4 21:32:13 10° N 21:36:37 81° E 21:37:45 49° SSE
Cosmos 1869 3.2 21:38:19 66° ESE 21:38:34 68° E 21:42:34 10° NNE
Cosmos 2366 rocket 3.9 21:36:09 21° S 21:40:26 71° E 21:46:41 10° NNE
SL-16 R/B 2.6 21:41:17 39° E 21:41:17 39° E 21:46:05 10° NE
Cosmos 1151 Rocket 3.4 21:38:11 14° SSW 21:41:42 62° W 21:45:56 10° N
Cosmos 220 Rocket 4.3 21:37:45 10° NNW 21:42:02 62° WSW 21:43:22 40° SSW
Terra 4.2 21:43:59 10° NE 21:43:59 10° NE 21:44:02 10° NE
Meteor 2-3 Rocket 4.5 21:42:11 10° NNW 21:47:34 50° W 21:52:04 15° SSW
GEOS 3 Rocket 3.6 21:43:49 10° NE 21:49:05 59° ESE 21:52:20 23° SSW
ARGOS 3.1 21:48:40 52° SE 21:49:47 65° ENE 21:55:05 10° N
SL-8 Rocket 4.2 21:43:48 10° SSW 21:50:05 72° W 21:56:23 10° N
Spot 2 Rocket 4.3 21:46:45 19° SSW 21:50:10 47° W 21:55:05 10° NNW
MetOp-B 4.1 21:53:32 56° ESE 21:54:18 63° ENE 21:59:36 10° N
SPOT 5 4.1 21:58:33 27° NE 21:58:33 27° NE 22:01:26 10° N
Cosmos 1339 Rocket 4.3 21:54:14 10° N 22:00:20 77° E 22:01:50 53° SSE
ATLAS 2AS CENTAUR R/B 3.1 21:59:42 10° NW 22:07:23 63° WSW 22:10:10 39° S
OAO 2 Rocket 4.2 22:03:00 10° W 22:07:13 36° SW 22:07:13 36° SW
Cosmos 2344 3.6 22:08:25 48° SE 22:09:29 52° ESE 22:17:07 10° NE
Meteor 2-10 Rocket 3.8 22:08:14 40° SSW 22:10:23 79° W 22:16:14 10° N
Cosmos 1408 4.0 22:07:15 10° NNW 22:10:34 34° W 22:10:34 34° W
Helios 1A 4.2 22:12:29 33° NNE 22:12:29 33° NNE 22:15:06 10° N
Cosmos 2297 4.0 22:08:40 10° NNW 22:14:04 51° ENE 22:14:04 51° ENE
SPOT 1/Viking Rocket 4.2 22:21:26 45° NE 22:21:26 45° NE 22:25:37 10° N
Cosmos 2369 Rocket 4.4 22:19:43 10° NNE 22:22:03 13° NE 22:22:03 13° NE
USA 81 4.0 22:18:54 10° N 22:24:02 81° NW 22:24:02 81° NW
H-2A R/B 2.2 22:29:05 68° W 22:29:05 68° W 22:33:50 10° NNW
ERS-1 Rocket 3.2 22:30:12 68° WNW 22:30:12 68° WNW 22:34:47 10° NNW
Cosmos 407 Rocket 3.7 22:27:15 10° NNW 22:31:35 64° NNW 22:31:35 64° NNW
Cosmos 2237 Rocket 4.1 22:30:46 10° WSW 22:35:29 27° WNW 22:40:15 10° N
NOSS 3-4 (A) 3.8 22:30:43 10° NNW 22:37:51 73° ENE 22:38:28 69° E
NOSS 3-4 (C) 3.8 22:30:49 10° NNW 22:37:57 72° ENE 22:38:33 69° E
USA 267 3.3 22:39:56 10° NE 22:46:28 78° NW 22:52:59 10° SW
Cosmos 2278 Rocket 3.5 22:41:48 10° NW 22:46:41 30° WSW 22:47:20 30° WSW
ATLAS 5 CENTAUR R/B 4.3 22:49:53 10° N 22:53:56 18° NE 22:54:11 18° NE
ATLAS 2A CENTAUR R/B 4.3 22:42:11 10° WSW 22:53:40 36° SSW 22:53:40 36° SSW
Cosmos 1821 Rocket 4.2 23:02:17 69° NNW 23:02:17 69° NNW 23:07:54 10° N
USA 234 4.2 23:17:45 35° NE 23:18:16 36° NNE 23:24:06 10° NNW
Terra 3.8 23:22:51 26° NNW 23:22:51 26° NNW 23:24:57 10° NNW
SL-16 R/B 4.0 23:23:00 22° W 23:25:02 27° WNW 23:29:47 10° N
Cosmos 1943 Rocket 4.0 23:33:50 10° N 23:36:23 24° NNE 23:36:23 24° NNE
CZ-4C R/B 4.0 23:43:32 25° NNE 23:43:32 25° NNE 23:46:08 10° NNE
Lacrosse 5 4.2 23:38:08 10° NNW 23:40:20 20° N 23:40:20 20° N
